Hourly Weather Bolshie Zhuhovichi

Today, 17 June, Thursday

Time Temperature Precipitation Wind Pressure Humidity
00:00 +13°C° 0 mm 2 mps 751 mmHg 83%
01:00 +13°C° 0 mm 2 mps 751 mmHg 83%
02:00 +12°C° 0 mm 2 mps 751 mmHg 83%
03:00 +12°C° 0 mm 2 mps 751 mmHg 83%
04:00 +12°C° 0 mm 2 mps 751 mmHg 83%
05:00 +12°C° 0 mm 2 mps 752 mmHg 84%
06:00 +14°C° 0 mm 2 mps 752 mmHg 78%
07:00 +16°C° 0 mm 2 mps 752 mmHg 72%
08:00 +19°C° 0 mm 2 mps 752 mmHg 66%
09:00 +20°C° 0 mm 2 mps 752 mmHg 63%
10:00 +21°C° 0 mm 2 mps 753 mmHg 59%
11:00 +24°C° 0 mm 2 mps 753 mmHg 56%
12:00 +24°C° 0 mm 2 mps 753 mmHg 54%
13:00 +25°C° 0 mm 2 mps 753 mmHg 52%
14:00 +26°C° 0 mm 2 mps 753 mmHg 51%
15:00 +26°C° 0 mm 2 mps 753 mmHg 53%
16:00 +26°C° 0 mm 2 mps 752 mmHg 55%
17:00 +26°C° 0 mm 2 mps 752 mmHg 57%
18:00 +24°C° 0 mm 2 mps 752 mmHg 64%
19:00 +21°C° 0 mm 2 mps 753 mmHg 71%
20:00 +20°C° 0 mm 2 mps 753 mmHg 77%
21:00 +19°C° 0 mm 2 mps 753 mmHg 80%
22:00 +17°C° 0 mm 2 mps 753 mmHg 82%
23:00 +16°C° 0 mm 2 mps 753 mmHg 84%

Tomorrow, 18 June, Friday

Time Temperature Precipitation Wind Pressure Humidity
00:00 +16°C° 0 mm 2 mps 753 mmHg 86%
01:00 +15°C° 0 mm 2 mps 753 mmHg 87%
02:00 +15°C° 0 mm 2 mps 753 mmHg 89%
03:00 +15°C° 0 mm 2 mps 753 mmHg 88%
04:00 +15°C° 0 mm 2 mps 754 mmHg 88%
05:00 +15°C° 0 mm 2 mps 754 mmHg 88%
06:00 +17°C° 0 mm 2 mps 754 mmHg 83%
07:00 +18°C° 0 mm 2 mps 754 mmHg 77%
08:00 +20°C° 0 mm 3 mps 754 mmHg 72%
09:00 +21°C° 0 mm 3 mps 754 mmHg 68%
10:00 +24°C° 0 mm 3 mps 754 mmHg 63%
11:00 +25°C° 0 mm 4 mps 754 mmHg 59%
12:00 +25°C° 0 mm 3 mps 753 mmHg 57%
13:00 +26°C° 0 mm 3 mps 753 mmHg 56%
14:00 +26°C° 0 mm 3 mps 753 mmHg 54%
15:00 +26°C° 0 mm 3 mps 753 mmHg 56%
16:00 +26°C° 0 mm 3 mps 752 mmHg 58%
17:00 +26°C° 0 mm 3 mps 752 mmHg 61%
18:00 +24°C° 0 mm 2 mps 752 mmHg 66%
19:00 +23°C° 0 mm 2 mps 752 mmHg 72%
20:00 +20°C° 0 mm 2 mps 752 mmHg 78%
21:00 +19°C° 0 mm 2 mps 752 mmHg 81%
22:00 +18°C° 0 mm 2 mps 752 mmHg 85%
23:00 +17°C° 0 mm 3 mps 752 mmHg 89%

Day after tomorrow, 19 June, Saturday

Time Temperature Precipitation Wind Pressure Humidity
00:00 +17°C° 0 mm 3 mps 752 mmHg 90%
01:00 +16°C° 0 mm 3 mps 752 mmHg 91%
02:00 +16°C° 0 mm 3 mps 752 mmHg 92%
03:00 +16°C° 0 mm 3 mps 752 mmHg 93%
04:00 +16°C° 0 mm 2 mps 752 mmHg 94%
05:00 +16°C° 0 mm 2 mps 752 mmHg 94%
06:00 +18°C° 0 mm 3 mps 752 mmHg 90%
07:00 +20°C° 0 mm 3 mps 752 mmHg 85%
08:00 +22°C° 0 mm 3 mps 752 mmHg 80%
09:00 +24°C° 0 mm 3 mps 752 mmHg 75%
10:00 +25°C° 0 mm 3 mps 752 mmHg 71%
11:00 +26°C° 0 mm 4 mps 752 mmHg 66%
12:00 +27°C° 0 mm 4 mps 752 mmHg 63%
13:00 +27°C° 0 mm 4 mps 751 mmHg 60%
14:00 +28°C° 0 mm 4 mps 751 mmHg 57%
15:00 +27°C° 0 mm 4 mps 751 mmHg 60%
16:00 +27°C° 0 mm 3 mps 751 mmHg 62%
17:00 +27°C° 0 mm 3 mps 751 mmHg 65%
18:00 +25°C° 0 mm 3 mps 750 mmHg 70%
19:00 +24°C° 0 mm 3 mps 750 mmHg 75%
20:00 +21°C° 0 mm 3 mps 750 mmHg 80%
21:00 +20°C° 0 mm 3 mps 750 mmHg 82%
22:00 +19°C° 0 mm 3 mps 750 mmHg 83%
23:00 +18°C° 0 mm 3 mps 750 mmHg 85%

20 June, Sunday

Time Temperature Precipitation Wind Pressure Humidity
00:00 +18°C° 0 mm 3 mps 750 mmHg 88%
01:00 +18°C° 0 mm 3 mps 750 mmHg 90%
02:00 +17°C° 0 mm 2 mps 750 mmHg 93%
03:00 +17°C° 0 mm 2 mps 750 mmHg 93%
04:00 +18°C° 0 mm 2 mps 750 mmHg 93%
05:00 +18°C° 0 mm 2 mps 750 mmHg 93%
06:00 +19°C° 0 mm 2 mps 750 mmHg 88%
07:00 +21°C° 0 mm 3 mps 750 mmHg 83%
08:00 +22°C° 0 mm 3 mps 750 mmHg 78%
09:00 +24°C° 0.1 mm 3 mps 750 mmHg 74%
10:00 +25°C° 0.1 mm 4 mps 750 mmHg 70%
11:00 +26°C° 0.1 mm 4 mps 750 mmHg 65%
12:00 +26°C° 0 mm 4 mps 750 mmHg 64%
13:00 +27°C° 0 mm 4 mps 749 mmHg 62%
14:00 +28°C° 0 mm 4 mps 749 mmHg 60%
15:00 +27°C° 0.4 mm 3 mps 749 mmHg 64%
16:00 +27°C° 0.4 mm 3 mps 749 mmHg 68%
17:00 +27°C° 0.4 mm 3 mps 749 mmHg 73%
18:00 +26°C° 0.6 mm 2 mps 748 mmHg 76%
19:00 +24°C° 0.6 mm 2 mps 748 mmHg 80%
20:00 +23°C° 0.6 mm 2 mps 748 mmHg 84%
21:00 +23°C° 0 mm 2 mps 748 mmHg 86%
22:00 +21°C° 0 mm 2 mps 748 mmHg 89%
23:00 +20°C° 0 mm 3 mps 748 mmHg 92%

21 June, Monday

Time Temperature Precipitation Wind Pressure Humidity
00:00 +19°C° 0 mm 3 mps 748 mmHg 93%
01:00 +19°C° 0 mm 3 mps 748 mmHg 93%
02:00 +18°C° 0 mm 3 mps 748 mmHg 94%
03:00 +18°C° 0 mm 2 mps 748 mmHg 94%
04:00 +18°C° 0 mm 2 mps 748 mmHg 94%
05:00 +18°C° 0 mm 2 mps 748 mmHg 94%
06:00 +20°C° 0 mm 3 mps 748 mmHg 90%
07:00 +21°C° 0 mm 3 mps 748 mmHg 85%
08:00 +22°C° 0 mm 4 mps 749 mmHg 81%
09:00 +25°C° 0 mm 4 mps 748 mmHg 75%
10:00 +26°C° 0 mm 4 mps 748 mmHg 68%
11:00 +27°C° 0 mm 5 mps 748 mmHg 61%
12:00 +28°C° 0 mm 5 mps 748 mmHg 59%
13:00 +29°C° 0 mm 5 mps 747 mmHg 57%
14:00 +29°C° 0 mm 5 mps 747 mmHg 55%
15:00 +29°C° 0 mm 4 mps 747 mmHg 58%
16:00 +29°C° 0 mm 4 mps 747 mmHg 61%
17:00 +29°C° 0 mm 4 mps 747 mmHg 64%
18:00 +27°C° 0 mm 3 mps 747 mmHg 70%
19:00 +26°C° 0 mm 3 mps 746 mmHg 75%
20:00 +24°C° 0 mm 3 mps 746 mmHg 81%
21:00 +22°C° 0 mm 3 mps 746 mmHg 84%
22:00 +22°C° 0 mm 3 mps 746 mmHg 88%
23:00 +21°C° 0 mm 3 mps 746 mmHg 91%

22 June, Tuesday

Time Temperature Precipitation Wind Pressure Humidity
00:00 +20°C° 0 mm 3 mps 746 mmHg 92%
01:00 +20°C° 0 mm 3 mps 746 mmHg 94%
02:00 +20°C° 0 mm 3 mps 746 mmHg 95%
03:00 +20°C° 0 mm 3 mps 746 mmHg 96%
04:00 +20°C° 0 mm 3 mps 746 mmHg 96%
05:00 +20°C° 0 mm 3 mps 746 mmHg 96%
06:00 +21°C° 0 mm 3 mps 746 mmHg 91%
07:00 +23°C° 0 mm 4 mps 746 mmHg 86%
08:00 +25°C° 0 mm 4 mps 746 mmHg 80%
09:00 +26°C° 0 mm 5 mps 746 mmHg 75%
10:00 +27°C° 0 mm 5 mps 746 mmHg 70%
11:00 +28°C° 0 mm 6 mps 747 mmHg 65%
12:00 +29°C° 0 mm 6 mps 747 mmHg 63%
13:00 +30°C° 0 mm 5 mps 747 mmHg 60%
14:00 +32°C° 0 mm 5 mps 746 mmHg 57%
15:00 +30°C° 0 mm 5 mps 746 mmHg 59%
16:00 +30°C° 0 mm 5 mps 746 mmHg 60%
17:00 +30°C° 0 mm 5 mps 746 mmHg 61%
18:00 +29°C° 0 mm 5 mps 746 mmHg 66%
19:00 +27°C° 0 mm 4 mps 746 mmHg 70%
20:00 +26°C° 0 mm 4 mps 746 mmHg 75%
21:00 +25°C° 0 mm 4 mps 746 mmHg 74%
22:00 +23°C° 0 mm 4 mps 747 mmHg 74%
23:00 +22°C° 0 mm 4 mps 747 mmHg 74%
Show more